Year,Month,Day,Hour,Minute,Value (Times are PST for temperature in C)
2018,06,17,00,00,17.30
2018,06,17,00,01,17.20
2018,06,17,00,02,17.20
2018,06,17,00,03,17.30
2018,06,17,00,04,17.30
2018,06,17,00,05,17.30
2018,06,17,00,06,17.30
2018,06,17,00,07,17.30
2018,06,17,00,08,17.30
2018,06,17,00,09,17.30
2018,06,17,00,10,17.30
2018,06,17,00,11,17.30
2018,06,17,00,12,17.30
2018,06,17,00,13,17.30
2018,06,17,00,14,17.30
2018,06,17,00,15,17.30
2018,06,17,00,16,17.30
2018,06,17,00,17,17.30
2018,06,17,00,18,17.30
2018,06,17,00,19,17.30
2018,06,17,00,20,17.30
2018,06,17,00,21,17.30
2018,06,17,00,22,17.30
2018,06,17,00,23,17.30
2018,06,17,00,24,17.30
2018,06,17,00,25,17.20
2018,06,17,00,26,17.20
2018,06,17,00,27,17.20
2018,06,17,00,28,17.20
2018,06,17,00,29,17.20
2018,06,17,00,30,17.10
2018,06,17,00,31,17.10
2018,06,17,00,32,17.10
2018,06,17,00,33,17.00
2018,06,17,00,34,17.00
2018,06,17,00,35,17.00
2018,06,17,00,36,17.00
2018,06,17,00,37,17.00
2018,06,17,00,38,16.90
2018,06,17,00,39,16.90
2018,06,17,00,40,16.90
2018,06,17,00,41,16.90
2018,06,17,00,42,16.80
2018,06,17,00,43,16.80
2018,06,17,00,44,16.80
2018,06,17,00,45,16.70
2018,06,17,00,46,16.70
2018,06,17,00,47,16.70
2018,06,17,00,48,16.70
2018,06,17,00,49,16.70
2018,06,17,00,50,16.70
2018,06,17,00,51,16.70
2018,06,17,00,52,16.60
2018,06,17,00,53,16.60
2018,06,17,00,54,16.50
2018,06,17,00,55,16.40
2018,06,17,00,56,16.40
2018,06,17,00,57,16.40
2018,06,17,00,58,16.40
2018,06,17,00,59,16.30
2018,06,17,01,00,16.30
2018,06,17,01,01,16.30
2018,06,17,01,02,16.20
2018,06,17,01,03,16.20
2018,06,17,01,04,16.20
2018,06,17,01,05,16.10
2018,06,17,01,06,16.10
2018,06,17,01,07,16.10
2018,06,17,01,08,16.10
2018,06,17,01,09,16.10
2018,06,17,01,10,16.10
2018,06,17,01,11,16.10
2018,06,17,01,12,16.00
2018,06,17,01,13,15.90
2018,06,17,01,14,15.90
2018,06,17,01,15,15.90
2018,06,17,01,16,15.90
2018,06,17,01,17,15.90
2018,06,17,01,18,15.90
2018,06,17,01,19,15.90
2018,06,17,01,20,15.90
2018,06,17,01,21,15.80
2018,06,17,01,22,15.80
2018,06,17,01,23,15.80
2018,06,17,01,24,15.80
2018,06,17,01,25,15.80
2018,06,17,01,26,15.80
2018,06,17,01,27,15.80
2018,06,17,01,28,15.80
2018,06,17,01,29,15.70
2018,06,17,01,30,15.70
2018,06,17,01,31,15.70
2018,06,17,01,32,15.70
2018,06,17,01,33,15.60
2018,06,17,01,34,15.60
2018,06,17,01,35,15.60
2018,06,17,01,36,15.60
2018,06,17,01,37,15.60
2018,06,17,01,38,15.50
2018,06,17,01,39,15.50
2018,06,17,01,40,15.50
2018,06,17,01,41,15.50
2018,06,17,01,42,15.40
2018,06,17,01,43,15.40
2018,06,17,01,44,15.40
2018,06,17,01,45,15.30
2018,06,17,01,46,15.30
2018,06,17,01,47,15.30
2018,06,17,01,48,15.30
2018,06,17,01,49,15.30
2018,06,17,01,50,15.30
2018,06,17,01,51,15.20
2018,06,17,01,52,15.20
2018,06,17,01,53,15.20
2018,06,17,01,54,15.10
2018,06,17,01,55,15.10
2018,06,17,01,56,15.10
2018,06,17,01,57,15.00
2018,06,17,01,58,15.00
2018,06,17,01,59,15.00
2018,06,17,02,00,15.00
2018,06,17,02,01,14.90
2018,06,17,02,02,14.90
2018,06,17,02,03,14.90
2018,06,17,02,04,14.90
2018,06,17,02,05,14.90
2018,06,17,02,06,14.80
2018,06,17,02,07,14.80
2018,06,17,02,08,14.80
2018,06,17,02,09,14.80
2018,06,17,02,10,14.80
2018,06,17,02,11,14.80
2018,06,17,02,12,14.80
2018,06,17,02,13,14.70
2018,06,17,02,14,14.70
2018,06,17,02,15,14.70
2018,06,17,02,16,14.70
2018,06,17,02,17,14.70
2018,06,17,02,18,14.70
2018,06,17,02,19,14.70
2018,06,17,02,20,14.70
2018,06,17,02,21,14.70
2018,06,17,02,22,14.70
2018,06,17,02,23,14.70
2018,06,17,02,24,14.70
2018,06,17,02,25,14.70
2018,06,17,02,26,14.70
2018,06,17,02,27,14.70
2018,06,17,02,28,14.70
2018,06,17,02,29,14.70
2018,06,17,02,30,14.70
2018,06,17,02,31,14.70
2018,06,17,02,32,14.60
2018,06,17,02,33,14.60
2018,06,17,02,34,14.60
2018,06,17,02,35,14.60
2018,06,17,02,36,14.60
2018,06,17,02,37,14.60
2018,06,17,02,38,14.60
2018,06,17,02,39,14.60
2018,06,17,02,40,14.60
2018,06,17,02,41,14.60
2018,06,17,02,42,14.60
2018,06,17,02,43,14.60
2018,06,17,02,44,14.50
2018,06,17,02,45,14.50
2018,06,17,02,46,14.50
2018,06,17,02,47,14.50
2018,06,17,02,48,14.50
2018,06,17,02,49,14.40
2018,06,17,02,50,14.40
2018,06,17,02,51,14.40
2018,06,17,02,52,14.40
2018,06,17,02,53,14.40
2018,06,17,02,54,14.30
2018,06,17,02,55,14.30
2018,06,17,02,56,14.30
2018,06,17,02,57,14.30
2018,06,17,02,58,14.30
2018,06,17,02,59,14.20
2018,06,17,03,00,14.20
2018,06,17,03,01,14.20
2018,06,17,03,02,14.20
2018,06,17,03,03,14.20
2018,06,17,03,04,14.20
2018,06,17,03,05,14.20
2018,06,17,03,06,14.20
2018,06,17,03,07,14.20
2018,06,17,03,08,14.20
2018,06,17,03,09,14.20
2018,06,17,03,10,14.10
2018,06,17,03,11,14.10
2018,06,17,03,12,14.10
2018,06,17,03,13,14.20
2018,06,17,03,14,14.20
2018,06,17,03,15,14.20
2018,06,17,03,16,14.10
2018,06,17,03,17,14.10
2018,06,17,03,18,14.10
2018,06,17,03,19,14.00
2018,06,17,03,20,14.00
2018,06,17,03,21,14.00
2018,06,17,03,22,14.00
2018,06,17,03,23,14.00
2018,06,17,03,24,14.00
2018,06,17,03,25,13.90
2018,06,17,03,26,13.90
2018,06,17,03,27,13.90
2018,06,17,03,28,13.90
2018,06,17,03,29,13.90
2018,06,17,03,30,13.90
2018,06,17,03,31,13.90
2018,06,17,03,32,13.90
2018,06,17,03,33,13.90
2018,06,17,03,34,13.80
2018,06,17,03,35,13.90
2018,06,17,03,36,13.90
2018,06,17,03,37,13.90
2018,06,17,03,38,13.90
2018,06,17,03,39,13.80
2018,06,17,03,40,13.80
2018,06,17,03,41,13.80
2018,06,17,03,42,13.80
2018,06,17,03,43,13.80
2018,06,17,03,44,13.80
2018,06,17,03,45,13.80
2018,06,17,03,46,13.80
2018,06,17,03,47,13.80
2018,06,17,03,48,13.70
2018,06,17,03,49,13.70
2018,06,17,03,50,13.70
2018,06,17,03,51,13.70
2018,06,17,03,52,13.70
2018,06,17,03,53,13.70
2018,06,17,03,54,13.70
2018,06,17,03,55,13.70
2018,06,17,03,56,13.70
2018,06,17,03,57,13.70
2018,06,17,03,58,13.70
2018,06,17,03,59,13.70
2018,06,17,04,00,13.70
2018,06,17,04,01,13.60
2018,06,17,04,02,13.60
2018,06,17,04,03,13.60
2018,06,17,04,04,13.60
2018,06,17,04,05,13.50
2018,06,17,04,06,13.50
2018,06,17,04,07,13.50
2018,06,17,04,08,13.50
2018,06,17,04,09,13.40
2018,06,17,04,10,13.40
2018,06,17,04,11,13.40
2018,06,17,04,12,13.40
2018,06,17,04,13,13.40
2018,06,17,04,14,13.40
2018,06,17,04,15,13.30
2018,06,17,04,16,13.30
2018,06,17,04,17,13.30
2018,06,17,04,18,13.30
2018,06,17,04,19,13.30
2018,06,17,04,20,13.30
2018,06,17,04,21,13.30
2018,06,17,04,22,13.30
2018,06,17,04,23,13.30
2018,06,17,04,24,13.30
2018,06,17,04,25,13.30
2018,06,17,04,26,13.30
2018,06,17,04,27,13.20
2018,06,17,04,28,13.20
2018,06,17,04,29,13.20
2018,06,17,04,30,13.20
2018,06,17,04,31,13.20
2018,06,17,04,32,13.10
2018,06,17,04,33,13.10
2018,06,17,04,34,13.10
2018,06,17,04,35,13.10
2018,06,17,04,36,13.10
2018,06,17,04,37,13.00
2018,06,17,04,38,13.00
2018,06,17,04,39,13.00
2018,06,17,04,40,13.00
2018,06,17,04,41,13.00
2018,06,17,04,42,12.90
2018,06,17,04,43,12.90
2018,06,17,04,44,12.90
2018,06,17,04,45,12.90
2018,06,17,04,46,12.90
2018,06,17,04,47,12.90
2018,06,17,04,48,12.80
2018,06,17,04,49,12.80
2018,06,17,04,50,12.80
2018,06,17,04,51,12.80
2018,06,17,04,52,12.80
2018,06,17,04,53,12.80
2018,06,17,04,54,12.80
2018,06,17,04,55,12.80
2018,06,17,04,56,12.80
2018,06,17,04,57,12.80
2018,06,17,04,58,12.80
2018,06,17,04,59,12.80
2018,06,17,05,00,12.80
2018,06,17,05,01,12.80
2018,06,17,05,02,12.80
2018,06,17,05,03,12.80
2018,06,17,05,04,12.80
2018,06,17,05,05,12.80
2018,06,17,05,06,12.80
2018,06,17,05,07,12.70
2018,06,17,05,08,12.70
2018,06,17,05,09,12.70
2018,06,17,05,10,12.70
2018,06,17,05,11,12.70
2018,06,17,05,12,12.70
2018,06,17,05,13,12.70
2018,06,17,05,14,12.70
2018,06,17,05,15,12.70
2018,06,17,05,16,12.70
2018,06,17,05,17,12.60
2018,06,17,05,18,12.60
2018,06,17,05,19,12.60
2018,06,17,05,20,12.60
2018,06,17,05,21,12.60
2018,06,17,05,22,12.60
2018,06,17,05,23,12.60
2018,06,17,05,24,12.60
2018,06,17,05,25,12.60
2018,06,17,05,26,12.60
2018,06,17,05,27,12.50
2018,06,17,05,28,12.50
2018,06,17,05,29,12.50
2018,06,17,05,30,12.50
2018,06,17,05,31,12.50
2018,06,17,05,32,12.50
2018,06,17,05,33,12.40
2018,06,17,05,34,12.40
2018,06,17,05,35,12.40
2018,06,17,05,36,12.40
2018,06,17,05,37,12.40
2018,06,17,05,38,12.40
2018,06,17,05,39,12.40
2018,06,17,05,40,12.40
2018,06,17,05,41,12.30
2018,06,17,05,42,12.30
2018,06,17,05,43,12.30
2018,06,17,05,44,12.30
2018,06,17,05,45,12.30
2018,06,17,05,46,12.30
2018,06,17,05,47,12.30
2018,06,17,05,48,12.30
2018,06,17,05,49,12.30
2018,06,17,05,50,12.30
2018,06,17,05,51,12.30
2018,06,17,05,52,12.30
2018,06,17,05,53,12.30
2018,06,17,05,54,12.30
2018,06,17,05,55,12.30
2018,06,17,05,56,12.30
2018,06,17,05,57,12.30
2018,06,17,05,58,12.30
2018,06,17,05,59,12.30
2018,06,17,06,00,12.40
2018,06,17,06,01,12.40
2018,06,17,06,02,12.40
2018,06,17,06,03,12.40
2018,06,17,06,04,12.40
2018,06,17,06,05,12.40
2018,06,17,06,06,12.40
2018,06,17,06,07,12.40
2018,06,17,06,08,12.40
2018,06,17,06,09,12.40
2018,06,17,06,10,12.40
2018,06,17,06,11,12.40
2018,06,17,06,12,12.50
2018,06,17,06,13,12.50
2018,06,17,06,14,12.50
2018,06,17,06,15,12.50
2018,06,17,06,16,12.60
2018,06,17,06,17,12.60
2018,06,17,06,18,12.70
2018,06,17,06,19,12.80
2018,06,17,06,20,12.80
2018,06,17,06,21,12.80
2018,06,17,06,22,12.90
2018,06,17,06,23,12.90
2018,06,17,06,24,12.90
2018,06,17,06,25,13.00
2018,06,17,06,26,13.00
2018,06,17,06,27,13.00
2018,06,17,06,28,13.10
2018,06,17,06,29,13.10
2018,06,17,06,30,13.20
2018,06,17,06,31,13.30
2018,06,17,06,32,13.30
2018,06,17,06,33,13.40
2018,06,17,06,34,13.50
2018,06,17,06,35,13.50
2018,06,17,06,36,13.50
2018,06,17,06,37,13.60
2018,06,17,06,38,13.60
2018,06,17,06,39,13.60
2018,06,17,06,40,13.60
2018,06,17,06,41,13.60
2018,06,17,06,42,13.60
2018,06,17,06,43,13.60
2018,06,17,06,44,13.60
2018,06,17,06,45,13.70
2018,06,17,06,46,13.70
2018,06,17,06,47,13.80
2018,06,17,06,48,13.80
2018,06,17,06,49,13.80
2018,06,17,06,50,13.90
2018,06,17,06,51,13.90
2018,06,17,06,52,14.00
2018,06,17,06,53,14.00
2018,06,17,06,54,14.00
2018,06,17,06,55,14.10
2018,06,17,06,56,14.20
2018,06,17,06,57,14.20
2018,06,17,06,58,14.20
2018,06,17,06,59,14.20
2018,06,17,07,00,14.30
2018,06,17,07,01,14.40
2018,06,17,07,02,14.40
2018,06,17,07,03,14.50
2018,06,17,07,04,14.60
2018,06,17,07,05,14.70
2018,06,17,07,06,14.70
2018,06,17,07,07,14.80
2018,06,17,07,08,14.80
2018,06,17,07,09,14.80
2018,06,17,07,10,14.80
2018,06,17,07,11,14.80
2018,06,17,07,12,14.80
2018,06,17,07,13,14.90
2018,06,17,07,14,14.90
2018,06,17,07,15,15.00
2018,06,17,07,16,15.00
2018,06,17,07,17,15.10
2018,06,17,07,18,15.20
2018,06,17,07,19,15.30
2018,06,17,07,20,15.40
2018,06,17,07,21,15.50
2018,06,17,07,22,15.60
2018,06,17,07,23,15.70
2018,06,17,07,24,15.80
2018,06,17,07,25,15.90
2018,06,17,07,26,15.90
2018,06,17,07,27,16.00
2018,06,17,07,28,16.10
2018,06,17,07,29,16.10
2018,06,17,07,30,16.20
2018,06,17,07,31,16.30
2018,06,17,07,32,16.40
2018,06,17,07,33,16.40
2018,06,17,07,34,16.50
2018,06,17,07,35,16.60
2018,06,17,07,36,16.70
2018,06,17,07,37,16.80
2018,06,17,07,38,16.90
2018,06,17,07,39,17.00
2018,06,17,07,40,17.10
2018,06,17,07,41,17.30
2018,06,17,07,42,17.30
2018,06,17,07,43,17.30
2018,06,17,07,44,17.40
2018,06,17,07,45,17.50
2018,06,17,07,46,17.50
2018,06,17,07,47,17.70
2018,06,17,07,48,17.70
2018,06,17,07,49,17.80
2018,06,17,07,50,17.90
2018,06,17,07,51,18.10
2018,06,17,07,52,18.20
2018,06,17,07,53,18.30
2018,06,17,07,54,18.50
2018,06,17,07,55,18.60
2018,06,17,07,56,18.70
2018,06,17,07,57,18.70
2018,06,17,07,58,18.80
2018,06,17,07,59,18.80
2018,06,17,08,00,18.80
2018,06,17,08,01,18.80
2018,06,17,08,02,18.90
2018,06,17,08,03,18.90
2018,06,17,08,04,18.90
2018,06,17,08,05,18.90
2018,06,17,08,06,18.90
2018,06,17,08,07,18.90
2018,06,17,08,08,18.90
2018,06,17,08,09,19.00
2018,06,17,08,10,19.10
2018,06,17,08,11,19.20
2018,06,17,08,12,19.40
2018,06,17,08,13,19.50
2018,06,17,08,14,19.50
2018,06,17,08,15,19.40
2018,06,17,08,16,19.30
2018,06,17,08,17,19.20
2018,06,17,08,18,19.10
2018,06,17,08,19,19.10
2018,06,17,08,20,19.00
2018,06,17,08,21,18.90
2018,06,17,08,22,18.90
2018,06,17,08,23,18.90
2018,06,17,08,24,18.90
2018,06,17,08,25,18.90
2018,06,17,08,26,18.90
2018,06,17,08,27,18.80
2018,06,17,08,28,18.90
2018,06,17,08,29,18.90
2018,06,17,08,30,18.90
2018,06,17,08,31,18.90
2018,06,17,08,32,18.90
2018,06,17,08,33,19.00
2018,06,17,08,34,19.10
2018,06,17,08,35,19.10
2018,06,17,08,36,19.20
2018,06,17,08,37,19.20
2018,06,17,08,38,19.30
2018,06,17,08,39,19.40
2018,06,17,08,40,19.40
2018,06,17,08,41,19.40
2018,06,17,08,42,19.50
2018,06,17,08,43,19.50
2018,06,17,08,44,19.60
2018,06,17,08,45,19.60
2018,06,17,08,46,19.70
2018,06,17,08,47,19.70
2018,06,17,08,48,19.80
2018,06,17,08,49,19.80
2018,06,17,08,50,19.90
2018,06,17,08,51,19.90
2018,06,17,08,52,19.90
2018,06,17,08,53,20.00
2018,06,17,08,54,20.10
2018,06,17,08,55,20.10
2018,06,17,08,56,20.10
2018,06,17,08,57,20.20
2018,06,17,08,58,20.20
2018,06,17,08,59,20.20
2018,06,17,09,00,20.20
2018,06,17,09,01,20.30
2018,06,17,09,02,20.30
2018,06,17,09,03,20.30
2018,06,17,09,04,20.40
2018,06,17,09,05,20.40
2018,06,17,09,06,20.50
2018,06,17,09,07,20.50
2018,06,17,09,08,20.60
2018,06,17,09,09,20.60
2018,06,17,09,10,20.70
2018,06,17,09,11,20.80
2018,06,17,09,12,20.90
2018,06,17,09,13,21.00
2018,06,17,09,14,21.10
2018,06,17,09,15,21.30
2018,06,17,09,16,21.30
2018,06,17,09,17,21.40
2018,06,17,09,18,21.50
2018,06,17,09,19,21.60
2018,06,17,09,20,21.60
2018,06,17,09,21,21.60
2018,06,17,09,22,21.70
2018,06,17,09,23,21.70
2018,06,17,09,24,21.80
2018,06,17,09,25,21.70
2018,06,17,09,26,21.60
2018,06,17,09,27,21.60
2018,06,17,09,28,21.50
2018,06,17,09,29,21.40
2018,06,17,09,30,21.40
2018,06,17,09,31,21.40
2018,06,17,09,32,21.30
2018,06,17,09,33,21.30
2018,06,17,09,34,21.30
2018,06,17,09,35,21.30
2018,06,17,09,36,21.30
2018,06,17,09,37,21.30
2018,06,17,09,38,21.30
2018,06,17,09,39,21.30
2018,06,17,09,40,21.30
2018,06,17,09,41,21.20
2018,06,17,09,42,21.20
2018,06,17,09,43,21.20
2018,06,17,09,44,21.20
2018,06,17,09,45,21.20
2018,06,17,09,46,21.20
2018,06,17,09,47,21.30
2018,06,17,09,48,21.30
2018,06,17,09,49,21.30
2018,06,17,09,50,21.20
2018,06,17,09,51,21.20
2018,06,17,09,52,21.20
2018,06,17,09,53,21.20
2018,06,17,09,54,21.20
2018,06,17,09,55,21.30
2018,06,17,09,56,21.30
2018,06,17,09,57,21.40
2018,06,17,09,58,21.50
2018,06,17,09,59,21.60
2018,06,17,10,00,21.80
2018,06,17,10,01,21.90
2018,06,17,10,02,22.10
2018,06,17,10,03,22.10
2018,06,17,10,04,22.10
2018,06,17,10,05,22.00
2018,06,17,10,06,22.00
2018,06,17,10,07,22.00
2018,06,17,10,08,22.00
2018,06,17,10,09,22.00
2018,06,17,10,10,22.10
2018,06,17,10,11,22.10
2018,06,17,10,12,22.10
2018,06,17,10,13,22.10
2018,06,17,10,14,22.00
2018,06,17,10,15,22.00
2018,06,17,10,16,22.00
2018,06,17,10,17,22.00
2018,06,17,10,18,22.00
2018,06,17,10,19,21.80
2018,06,17,10,20,21.70
2018,06,17,10,21,21.60
2018,06,17,10,22,21.40
2018,06,17,10,23,21.40
2018,06,17,10,24,21.40
2018,06,17,10,25,21.50
2018,06,17,10,26,21.60
2018,06,17,10,27,21.60
2018,06,17,10,28,21.60
2018,06,17,10,29,21.60
2018,06,17,10,30,21.60
2018,06,17,10,31,21.60
2018,06,17,10,32,21.60
2018,06,17,10,33,21.70
2018,06,17,10,34,21.70
2018,06,17,10,35,21.70
2018,06,17,10,36,21.60
2018,06,17,10,37,21.40
2018,06,17,10,38,21.20
2018,06,17,10,39,21.10
2018,06,17,10,40,21.00
2018,06,17,10,41,20.90
2018,06,17,10,42,20.90
2018,06,17,10,43,20.90
2018,06,17,10,44,20.90
2018,06,17,10,45,20.90
2018,06,17,10,46,20.90
2018,06,17,10,47,21.00
2018,06,17,10,48,21.00
2018,06,17,10,49,21.00
2018,06,17,10,50,20.80
2018,06,17,10,51,20.70
2018,06,17,10,52,20.70
2018,06,17,10,53,20.60
2018,06,17,10,54,20.70
2018,06,17,10,55,20.80
2018,06,17,10,56,20.80
2018,06,17,10,57,20.80
2018,06,17,10,58,20.80
2018,06,17,10,59,20.70
2018,06,17,11,00,20.70
2018,06,17,11,01,20.70
2018,06,17,11,02,20.70
2018,06,17,11,03,20.80
2018,06,17,11,04,20.90
2018,06,17,11,05,20.90
2018,06,17,11,06,20.90
2018,06,17,11,07,20.90
2018,06,17,11,08,21.00
2018,06,17,11,09,20.90
2018,06,17,11,10,20.90
2018,06,17,11,11,20.90
2018,06,17,11,12,20.90
2018,06,17,11,13,20.90
2018,06,17,11,14,20.90
2018,06,17,11,15,20.90
2018,06,17,11,16,21.00
2018,06,17,11,17,21.00
2018,06,17,11,18,21.00
2018,06,17,11,19,21.00
2018,06,17,11,20,21.00
2018,06,17,11,21,21.00
2018,06,17,11,22,21.10
2018,06,17,11,23,21.20
2018,06,17,11,24,21.30
2018,06,17,11,25,21.30
2018,06,17,11,26,21.30
2018,06,17,11,27,21.30
2018,06,17,11,28,21.40
2018,06,17,11,29,21.50
2018,06,17,11,30,21.50
2018,06,17,11,31,21.60
2018,06,17,11,32,21.60
2018,06,17,11,33,21.70
2018,06,17,11,34,21.70
2018,06,17,11,35,21.70
2018,06,17,11,36,21.70
2018,06,17,11,37,21.80
2018,06,17,11,38,21.90
2018,06,17,11,39,21.90
2018,06,17,11,40,21.90
2018,06,17,11,41,21.80
2018,06,17,11,42,21.70
2018,06,17,11,43,21.70
2018,06,17,11,44,21.70
2018,06,17,11,45,21.60
2018,06,17,11,46,21.60
2018,06,17,11,47,21.60
2018,06,17,11,48,21.60
2018,06,17,11,49,21.60
2018,06,17,11,50,21.70
2018,06,17,11,51,21.80
2018,06,17,11,52,21.80
2018,06,17,11,53,21.80
2018,06,17,11,54,21.70
2018,06,17,11,55,21.60
2018,06,17,11,56,21.60
2018,06,17,11,57,21.60
2018,06,17,11,58,21.60
2018,06,17,11,59,21.60
2018,06,17,12,00,21.60
2018,06,17,12,01,21.60
2018,06,17,12,02,21.60
2018,06,17,12,03,21.60
2018,06,17,12,04,21.60
2018,06,17,12,05,21.60
2018,06,17,12,06,21.60
2018,06,17,12,07,21.60
2018,06,17,12,08,21.70
2018,06,17,12,09,21.70
2018,06,17,12,10,21.70
2018,06,17,12,11,21.80
2018,06,17,12,12,21.80
2018,06,17,12,13,21.90
2018,06,17,12,14,21.80
2018,06,17,12,15,21.80
2018,06,17,12,16,21.80
2018,06,17,12,17,21.80
2018,06,17,12,18,21.70
2018,06,17,12,19,21.80
2018,06,17,12,20,21.70
2018,06,17,12,21,21.70
2018,06,17,12,22,21.70
2018,06,17,12,23,21.70
2018,06,17,12,24,21.70
2018,06,17,12,25,21.70
2018,06,17,12,26,21.80
2018,06,17,12,27,22.00
2018,06,17,12,28,22.00
2018,06,17,12,29,22.00
2018,06,17,12,30,22.00
2018,06,17,12,31,22.00
2018,06,17,12,32,22.00
2018,06,17,12,33,22.00
2018,06,17,12,34,22.10
2018,06,17,12,35,22.20
2018,06,17,12,36,22.30
2018,06,17,12,37,22.40
2018,06,17,12,38,22.40
2018,06,17,12,39,22.30
2018,06,17,12,40,22.30
2018,06,17,12,41,22.40
2018,06,17,12,42,22.40
2018,06,17,12,43,22.40
2018,06,17,12,44,22.40
2018,06,17,12,45,22.50
2018,06,17,12,46,22.60
2018,06,17,12,47,22.40
2018,06,17,12,48,22.40
2018,06,17,12,49,22.40
2018,06,17,12,50,22.40
2018,06,17,12,51,22.40
2018,06,17,12,52,22.50
2018,06,17,12,53,22.60
2018,06,17,12,54,22.60
2018,06,17,12,55,22.70
2018,06,17,12,56,22.80
2018,06,17,12,57,22.90
2018,06,17,12,58,23.00
2018,06,17,12,59,23.10
2018,06,17,13,00,23.30
2018,06,17,13,01,23.30
2018,06,17,13,02,23.20
2018,06,17,13,03,23.20
2018,06,17,13,04,23.20
2018,06,17,13,05,23.20
2018,06,17,13,06,23.10
2018,06,17,13,07,23.10
2018,06,17,13,08,23.10
2018,06,17,13,09,23.10
2018,06,17,13,10,23.10
2018,06,17,13,11,23.10
2018,06,17,13,12,23.10
2018,06,17,13,13,23.10
2018,06,17,13,14,23.10
2018,06,17,13,15,23.10
2018,06,17,13,16,23.10
2018,06,17,13,17,23.20
2018,06,17,13,18,23.30
2018,06,17,13,19,23.40
2018,06,17,13,20,23.60
2018,06,17,13,21,23.70
2018,06,17,13,22,23.70
2018,06,17,13,23,23.80
2018,06,17,13,24,23.90
2018,06,17,13,25,24.00
2018,06,17,13,26,24.10
2018,06,17,13,27,24.10
2018,06,17,13,28,24.20
2018,06,17,13,29,24.20
2018,06,17,13,30,24.30
2018,06,17,13,31,24.40
2018,06,17,13,32,24.40
2018,06,17,13,33,24.50
2018,06,17,13,34,24.60
2018,06,17,13,35,24.70
2018,06,17,13,36,24.80
2018,06,17,13,37,25.00
2018,06,17,13,38,25.20
2018,06,17,13,39,25.40
2018,06,17,13,40,25.50
2018,06,17,13,41,25.60
2018,06,17,13,42,25.60
2018,06,17,13,43,25.60
2018,06,17,13,44,25.70
2018,06,17,13,45,25.80
2018,06,17,13,46,25.90
2018,06,17,13,47,25.90
2018,06,17,13,48,26.00
2018,06,17,13,49,26.00
2018,06,17,13,50,25.90
2018,06,17,13,51,25.80
2018,06,17,13,52,25.60
2018,06,17,13,53,25.50
2018,06,17,13,54,25.50
2018,06,17,13,55,25.50
2018,06,17,13,56,25.40
2018,06,17,13,57,25.30
2018,06,17,13,58,25.30
2018,06,17,13,59,25.20
2018,06,17,14,00,25.20
2018,06,17,14,01,25.10
2018,06,17,14,02,25.00
2018,06,17,14,03,24.90
2018,06,17,14,04,24.90
2018,06,17,14,05,24.90
2018,06,17,14,06,24.90
2018,06,17,14,07,25.00
2018,06,17,14,08,25.00
2018,06,17,14,09,25.00
2018,06,17,14,10,25.00
2018,06,17,14,11,25.00
2018,06,17,14,12,25.00
2018,06,17,14,13,25.10
2018,06,17,14,14,25.30
2018,06,17,14,15,25.30
2018,06,17,14,16,25.50
2018,06,17,14,17,25.50
2018,06,17,14,18,25.60
2018,06,17,14,19,25.60
2018,06,17,14,20,25.60
2018,06,17,14,21,25.60
2018,06,17,14,22,25.60
2018,06,17,14,23,25.60
2018,06,17,14,24,25.40
2018,06,17,14,25,25.20
2018,06,17,14,26,25.10
2018,06,17,14,27,25.10
2018,06,17,14,28,25.00
2018,06,17,14,29,24.90
2018,06,17,14,30,24.80
2018,06,17,14,31,24.80
2018,06,17,14,32,24.80
2018,06,17,14,33,24.80
2018,06,17,14,34,24.80
2018,06,17,14,35,24.90
2018,06,17,14,36,24.90
2018,06,17,14,37,25.00
2018,06,17,14,38,25.00
2018,06,17,14,39,25.10
2018,06,17,14,40,25.10
2018,06,17,14,41,25.10
2018,06,17,14,42,25.30
2018,06,17,14,43,25.40
2018,06,17,14,44,25.40
2018,06,17,14,45,25.50
2018,06,17,14,46,25.50
2018,06,17,14,47,25.60
2018,06,17,14,48,25.70
2018,06,17,14,49,25.80
2018,06,17,14,50,25.90
2018,06,17,14,51,25.90
2018,06,17,14,52,26.00
2018,06,17,14,53,26.00
2018,06,17,14,54,26.00
2018,06,17,14,55,26.10
2018,06,17,14,56,26.20
2018,06,17,14,57,26.30
2018,06,17,14,58,26.40
2018,06,17,14,59,26.40
2018,06,17,15,00,26.50
2018,06,17,15,01,26.60
2018,06,17,15,02,26.70
2018,06,17,15,03,26.70
2018,06,17,15,04,26.70
2018,06,17,15,05,26.70
2018,06,17,15,06,26.60
2018,06,17,15,07,26.60
2018,06,17,15,08,26.60
2018,06,17,15,09,26.60
2018,06,17,15,10,26.80
2018,06,17,15,11,26.90
2018,06,17,15,12,27.00
2018,06,17,15,13,27.10
2018,06,17,15,14,27.20
2018,06,17,15,15,27.20
2018,06,17,15,16,27.10
2018,06,17,15,17,27.00
2018,06,17,15,18,26.90
2018,06,17,15,19,26.80
2018,06,17,15,20,26.60
2018,06,17,15,21,26.60
2018,06,17,15,22,26.60
2018,06,17,15,23,26.50
2018,06,17,15,24,26.40
2018,06,17,15,25,26.40
2018,06,17,15,26,26.30
2018,06,17,15,27,26.20
2018,06,17,15,28,26.10
2018,06,17,15,29,26.00
2018,06,17,15,30,25.90
2018,06,17,15,31,25.80
2018,06,17,15,32,25.70
2018,06,17,15,33,25.60
2018,06,17,15,34,25.60
2018,06,17,15,35,25.60
2018,06,17,15,36,25.70
2018,06,17,15,37,25.80
2018,06,17,15,38,26.00
2018,06,17,15,39,26.00
2018,06,17,15,40,26.00
2018,06,17,15,41,26.00
2018,06,17,15,42,26.00
2018,06,17,15,43,26.00
2018,06,17,15,44,26.00
2018,06,17,15,45,25.90
2018,06,17,15,46,25.80
2018,06,17,15,47,25.80
2018,06,17,15,48,25.90
2018,06,17,15,49,26.00
2018,06,17,15,50,26.00
2018,06,17,15,51,26.00
2018,06,17,15,52,25.90
2018,06,17,15,53,25.80
2018,06,17,15,54,25.70
2018,06,17,15,55,25.60
2018,06,17,15,56,25.60
2018,06,17,15,57,25.50
2018,06,17,15,58,25.50
2018,06,17,15,59,25.50
2018,06,17,16,00,25.50
2018,06,17,16,01,25.50
2018,06,17,16,02,25.50
2018,06,17,16,03,25.50
2018,06,17,16,04,25.50
2018,06,17,16,05,25.50
2018,06,17,16,06,25.60
2018,06,17,16,07,25.60
2018,06,17,16,08,25.60
2018,06,17,16,09,25.50
2018,06,17,16,10,25.40
2018,06,17,16,11,25.40
2018,06,17,16,12,25.40
2018,06,17,16,13,25.40
2018,06,17,16,14,25.30
2018,06,17,16,15,25.30
2018,06,17,16,16,25.30
2018,06,17,16,17,25.40
2018,06,17,16,18,25.40
2018,06,17,16,19,25.40
2018,06,17,16,20,25.40
2018,06,17,16,21,25.40
2018,06,17,16,22,25.40
2018,06,17,16,23,25.40
2018,06,17,16,24,25.40
2018,06,17,16,25,25.50
2018,06,17,16,26,25.60
2018,06,17,16,27,25.80
2018,06,17,16,28,25.80
2018,06,17,16,29,25.90
2018,06,17,16,30,25.90
2018,06,17,16,31,26.00
2018,06,17,16,32,26.10
2018,06,17,16,33,26.10
2018,06,17,16,34,26.10
2018,06,17,16,35,26.10
2018,06,17,16,36,26.10
2018,06,17,16,37,26.10
2018,06,17,16,38,26.20
2018,06,17,16,39,26.30
2018,06,17,16,40,26.30
2018,06,17,16,41,26.30
2018,06,17,16,42,26.20
2018,06,17,16,43,26.20
2018,06,17,16,44,26.10
2018,06,17,16,45,26.20
2018,06,17,16,46,26.20
2018,06,17,16,47,26.20
2018,06,17,16,48,26.30
2018,06,17,16,49,26.30
2018,06,17,16,50,26.40
2018,06,17,16,51,26.50
2018,06,17,16,52,26.60
2018,06,17,16,53,26.80
2018,06,17,16,54,26.80
2018,06,17,16,55,26.70
2018,06,17,16,56,26.60
2018,06,17,16,57,26.60
2018,06,17,16,58,26.60
2018,06,17,16,59,26.70
2018,06,17,17,00,26.80
2018,06,17,17,01,26.80
2018,06,17,17,02,26.90
2018,06,17,17,03,27.00
2018,06,17,17,04,27.10
2018,06,17,17,05,27.20
2018,06,17,17,06,27.20
2018,06,17,17,07,27.00
2018,06,17,17,08,26.80
2018,06,17,17,09,26.60
2018,06,17,17,10,26.50
2018,06,17,17,11,26.30
2018,06,17,17,12,26.10
2018,06,17,17,13,26.00
2018,06,17,17,14,26.00
2018,06,17,17,15,25.90
2018,06,17,17,16,25.80
2018,06,17,17,17,25.90
2018,06,17,17,18,25.90
2018,06,17,17,19,26.00